| time (UTC) | temp F | wind direction | speed MPH | gust MPH | rain 1hr in | rain 24hr in | rain mn in | humidity % | barometer mb |
| 20260503012236 | 67 | 45 | 0.0 | 0.0 | 0.00 | 0.00 | 0.00 | 52 | 1013.9 |
| 20260503010433 | 68 | 45 | 0.0 | 0.0 | 0.00 | 0.00 | 0.00 | 50 | 1013.9 |
| 20260503005434 | 70 | 45 | 0.0 | 0.0 | 0.00 | 0.00 | 0.00 | 48 | 1013.9 |
| 20260503004434 | 70 | 45 | 0.0 | 0.0 | 0.00 | 0.00 | 0.00 | 45 | 1013.9 |
| 20260503003436 | 72 | 135 | 0.0 | 0.0 | 0.00 | 0.00 | 0.00 | 45 | 1013.5 |
| 20260503002435 | 73 | 67 | 0.0 | 0.0 | 0.00 | 0.00 | 0.00 | 46 | 1013.5 |
| 20260503001435 | 74 | 67 | 0.0 | 3.0 | 0.00 | 0.00 | 0.00 | 43 | 1013.2 |
| 20260502235535 | 74 | 67 | 0.0 | 0.0 | 0.00 | 0.02 | 0.00 | 41 | 1012.8 |
| 20260502234537 | 75 | 22 | 0.0 | 0.0 | 0.00 | 0.03 | 0.00 | 44 | 1013.2 |
| 20260502232635 | 76 | 4 | 0.0 | 5.0 | 0.00 | 0.03 | 0.00 | 42 | 1012.8 |
| 20260502231634 | 74 | 48 | 3.0 | 5.0 | 0.00 | 0.03 | 0.00 | 40 | 1012.8 |
| 20260502230634 | 75 | 54 | 1.0 | 5.0 | 0.00 | 0.03 | 0.00 | 41 | 1012.8 |
| 20260502225734 | 75 | 67 | 0.0 | 4.0 | 0.00 | 0.03 | 0.00 | 42 | 1012.8 |
| 20260502224735 | 76 | 51 | 0.0 | 1.0 | 0.00 | 0.04 | 0.00 | 42 | 1012.4 |
| 20260502223735 | 77 | 45 | 0.0 | 0.0 | 0.00 | 0.04 | 0.00 | 45 | 1012.4 |
| 20260502222833 | 75 | 22 | 0.0 | 0.0 | 0.00 | 0.04 | 0.00 | 44 | 1012.8 |
| 20260502221833 | 74 | 37 | 0.0 | 3.0 | 0.00 | 0.06 | 0.00 | 45 | 1013.2 |
| 20260502220834 | 75 | 72 | 0.0 | 1.0 | 0.00 | 0.08 | 0.00 | 44 | 1013.2 |
| 20260502215833 | 75 | 90 | 2.0 | 4.0 | 0.00 | 0.09 | 0.00 | 41 | 1012.8 |
| 20260502214835 | 76 | 67 | 0.0 | 3.0 | 0.00 | 0.11 | 0.00 | 40 | 1012.8 |
| 20260502213835 | 74 | 67 | 2.0 | 4.0 | 0.00 | 0.18 | 0.00 | 42 | 1013.2 |
| 20260502212836 | 76 | 358 | 1.0 | 4.0 | 0.00 | 0.19 | 0.00 | 40 | 1013.2 |
| 20260502211833 | 75 | 38 | 5.0 | 8.0 | 0.00 | 0.20 | 0.00 | 41 | 1013.2 |
| 20260502210835 | 75 | 59 | 2.0 | 6.0 | 0.00 | 0.21 | 0.00 | 43 | 1013.5 |
| 20260502205834 | 75 | 52 | 2.0 | 4.0 | 0.00 | 0.21 | 0.00 | 41 | 1013.5 |
| 20260502204834 | 75 | 26 | 0.0 | 4.0 | 0.00 | 0.21 | 0.00 | 41 | 1013.5 |
| 20260502203835 | 74 | 58 | 3.0 | 6.0 | 0.00 | 0.21 | 0.00 | 40 | 1013.5 |
| 20260502202834 | 74 | 9 | 3.0 | 7.0 | 0.00 | 0.21 | 0.00 | 40 | 1013.9 |
| 20260502200835 | 74 | 353 | 2.0 | 8.0 | 0.00 | 0.21 | 0.00 | 44 | 1013.9 |
| 20260502195834 | 73 | 42 | 3.0 | 6.0 | 0.00 | 0.23 | 0.00 | 43 | 1014.2 |
| 20260502194834 | 73 | 67 | 0.0 | 2.0 | 0.00 | 0.23 | 0.00 | 44 | 1013.9 |
| 20260502192936 | 72 | 74 | 1.0 | 4.0 | 0.00 | 0.27 | 0.00 | 47 | 1014.2 |
| 20260502192033 | 71 | 57 | 2.0 | 3.0 | 0.00 | 0.31 | 0.00 | 47 | 1014.2 |
| 20260502191132 | 71 | 355 | 3.0 | 6.0 | 0.00 | 0.32 | 0.00 | 46 | 1014.2 |
| 20260502190133 | 70 | 67 | 7.0 | 10.0 | 0.00 | 0.32 | 0.00 | 48 | 1014.5 |
| 20260502184233 | 72 | 48 | 2.0 | 5.0 | 0.00 | 0.32 | 0.00 | 48 | 1014.5 |
| 20260502183235 | 71 | 12 | 1.0 | 4.0 | 0.00 | 0.33 | 0.00 | 52 | 1014.9 |
| 20260502182234 | 70 | 351 | 1.0 | 6.0 | 0.00 | 0.35 | 0.00 | 52 | 1015.2 |
| 20260502181333 | 71 | 330 | 1.0 | 5.0 | 0.00 | 0.42 | 0.00 | 54 | 1015.2 |
| 20260502180334 | 71 | 320 | 5.0 | 9.0 | 0.00 | 0.49 | 0.00 | 53 | 1015.5 |
| 20260502162632 | 66 | 36 | 4.0 | 6.0 | 0.00 | 0.64 | 0.00 | 58 | 1016.3 |
| 20260502161635 | 64 | 316 | 3.0 | 7.0 | 0.00 | 0.64 | 0.00 | 64 | 1016.3 |
| 20260502151933 | 60 | 359 | 0.0 | 4.0 | 0.00 | 0.69 | 0.00 | 72 | 1016.9 |
| 20260502150935 | 60 | 16 | 2.0 | 6.0 | 0.00 | 0.69 | 0.00 | 75 | 1016.6 |
| 20260502130134 | 50 | 1 | 3.0 | 5.0 | 0.00 | 0.89 | 0.00 | 95 | 1016.6 |
| 20260502122133 | 46 | 337 | 1.0 | 3.0 | 0.00 | 0.98 | 0.00 | 61 | 1016.6 |
| 20260502120134 | 45 | 337 | 0.0 | 0.0 | 0.00 | 1.03 | 0.00 | 72 | 1016.3 |
| 20260502115132 | 46 | 337 | 0.0 | 0.0 | 0.00 | 1.07 | 0.00 | 74 | 1015.9 |
| 20260502115033 | 46 | 337 | 0.0 | 0.0 | 0.00 | 1.08 | 0.00 | 80 | 1015.9 |
| 20260502114034 | 47 | 337 | 0.0 | 0.0 | 0.00 | 1.12 | 0.00 | 82 | 1015.9 |
| 20260502113037 | 46 | 337 | 0.0 | 0.0 | 0.00 | 1.15 | 0.00 | 83 | 1015.9 |
| 20260502112034 | 47 | 337 | 0.0 | 0.0 | 0.00 | 1.17 | 0.00 | 86 | 1015.6 |
| 20260502111033 | 48 | 337 | 0.0 | 0.0 | 0.00 | 1.20 | 0.00 | 87 | 1015.6 |
| 20260502110132 | 48 | 357 | 0.0 | 2.0 | 0.00 | 1.24 | 0.00 | 89 | 1015.6 |
| 20260502105135 | 48 | 360 | 0.0 | 2.0 | 0.00 | 1.29 | 0.00 | 91 | 1015.2 |
| 20260502104135 | 49 | 360 | 0.0 | 0.0 | 0.00 | 1.33 | 0.00 | 95 | 1015.2 |
| 20260502103132 | 49 | 6 | 2.0 | 5.0 | 0.00 | 1.37 | 0.00 | 96 | 1014.9 |
| 20260502102133 | 49 | 67 | 0.0 | 3.0 | 0.00 | 1.39 | 0.00 | 96 | 1014.5 |
| 20260502101133 | 49 | 6 | 0.0 | 5.0 | 0.00 | 1.43 | 0.00 | 96 | 1014.2 |
| 20260502100133 | 49 | 22 | 1.0 | 2.0 | 0.00 | 1.45 | 0.00 | 97 | 1014.2 |
| 20260502091234 | 49 | 22 | 3.0 | 4.0 | 0.00 | 1.53 | 0.00 | 97 | 1013.9 |
| 20260502090333 | 50 | 20 | 0.0 | 3.0 | 0.00 | 1.57 | 0.00 | 98 | 1013.9 |
| 20260502070632 | 50 | 357 | 0.0 | 1.0 | 0.00 | 1.73 | 0.00 | 93 | 1013.5 |
| 20260502065634 | 50 | 22 | 1.0 | 3.0 | 0.00 | 1.73 | 0.00 | 94 | 1013.2 |
| 20260502064634 | 50 | 337 | 0.0 | 1.0 | 0.00 | 1.73 | 0.00 | 95 | 1013.5 |
| 20260502063634 | 50 | 22 | 0.0 | 2.0 | 0.00 | 1.73 | 0.00 | 93 | 1013.5 |
| 20260502062634 | 50 | 1 | 0.0 | 2.0 | 0.00 | 1.74 | 0.00 | 94 | 1013.9 |
| 20260502061633 | 51 | 45 | 0.0 | 0.0 | 0.00 | 1.74 | 0.00 | 97 | 1013.9 |
| 20260502060634 | 51 | 360 | 0.0 | 0.0 | 0.00 | 1.74 | 0.00 | 97 | 1013.9 |
| 20260502055732 | 51 | 360 | 1.0 | 3.0 | 0.00 | 1.74 | 0.00 | 97 | 1013.9 |
| 20260502054734 | 51 | 22 | 0.0 | 4.0 | 0.00 | 1.74 | 0.00 | 97 | 1013.9 |
| 20260502054634 | 51 | 22 | 1.0 | 2.0 | 0.00 | 1.74 | 0.00 | 97 | 1013.9 |
| 20260502053732 | 51 | 22 | 0.0 | 2.0 | 0.00 | 1.74 | 0.00 | 98 | 1013.5 |
| 20260502052733 | 51 | 9 | 1.0 | 3.0 | 0.00 | 1.74 | 0.00 | 97 | 1013.5 |
| 20260502051734 | 51 | 16 | 1.0 | 3.0 | 0.00 | 1.74 | 0.00 | 97 | 1013.5 |
| 20260502050733 | 51 | 67 | 1.0 | 3.0 | 0.00 | 1.74 | 0.00 | 97 | 1013.5 |
| 20260502044916 | 51 | 22 | 0.0 | 2.0 | 0.00 | 1.75 | 1.74 | 98 | 1013.5 |
| 20260502043918 | 52 | 22 | 0.0 | 2.0 | 0.00 | 1.75 | 1.74 | 99 | 1013.5 |
| 20260502042917 | 52 | 19 | 2.0 | 4.0 | 0.00 | 1.75 | 1.74 | 99 | 1013.2 |
| 20260502041918 | 52 | 22 | 0.0 | 1.0 | 0.00 | 1.75 | 1.74 | 99 | 1013.2 |
| 20260502040017 | 53 | 16 | 1.0 | 4.0 | 0.00 | 1.75 | 1.74 | 99 | 1013.2 |
| 20260502035017 | 53 | 26 | 1.0 | 5.0 | 0.00 | 1.75 | 1.74 | 98 | 1013.2 |
| 20260502034115 | 53 | 16 | 1.0 | 6.0 | 0.00 | 1.75 | 1.74 | 98 | 1013.2 |
| 20260502033118 | 53 | 38 | 3.0 | 7.0 | 0.00 | 1.75 | 1.74 | 98 | 1013.2 |
| 20260502032118 | 53 | 47 | 3.0 | 5.0 | 0.00 | 1.75 | 1.74 | 98 | 1012.8 |
| 20260502031216 | 53 | 45 | 3.0 | 4.0 | 0.00 | 1.75 | 1.74 | 98 | 1012.8 |
| 20260502030219 | 53 | 31 | 2.0 | 5.0 | 0.00 | 1.75 | 1.74 | 98 | 1012.8 |
| 20260502025317 | 53 | 30 | 3.0 | 5.0 | 0.00 | 1.75 | 1.74 | 98 | 1012.7 |
| 20260502024317 | 53 | 60 | 2.0 | 5.0 | 0.00 | 1.76 | 1.74 | 98 | 1012.3 |
| 20260502023316 | 52 | 32 | 4.0 | 7.0 | 0.00 | 1.76 | 1.74 | 98 | 1011.7 |
| 20260502022316 | 52 | 45 | 2.0 | 4.0 | 0.00 | 1.77 | 1.74 | 94 | 1011.7 |
| 20260502021318 | 53 | 38 | 4.0 | 6.0 | 0.00 | 1.77 | 1.74 | 93 | 1011.7 |
| 20260502020319 | 52 | 27 | 4.0 | 6.0 | 0.00 | 1.77 | 1.74 | 84 | 1011.7 |
| 20260502015316 | 52 | 40 | 2.0 | 5.0 | 0.00 | 1.77 | 1.74 | 68 | 1011.6 |
| 20260502014319 | 51 | 360 | 0.0 | 2.0 | 0.00 | 1.77 | 1.74 | 57 | 1011.3 |
| 20260502013316 | 51 | 48 | 4.0 | 7.0 | 0.00 | 1.77 | 1.74 | 52 | 1011.1 |